Tacoma, WA

5:37 PM PDT on August 24, 2016 (GMT -0700)
McChord Air Force Base

Weather History for KTCM - May, 2013

Change the Weather History Date:

Saturday, May 4, 2013

  Actual Average Record
Temperature  
Mean Temperature 60 °F -  
Max Temperature 77 °F 58 °F 86 °F (1992)
Min Temperature 44 °F 39 °F 30 °F (1963)
Degree Days  
Heating Degree Days 4    
Growing Degree Days 10 (Base 50)    
Moisture  
Dew Point 42 °F    
Average Humidity 49    
Maximum Humidity 91    
Minimum Humidity 25    
Precipitation  
Precipitation 0.00 in - - ()
Sea Level Pressure  
Sea Level Pressure 30.14 in    
Wind  
Wind Speed 8 mph (NE)    
Max Wind Speed 20 mph    
Max Gust Speed 26 mph    
Visibility 10 miles    
Events      
Averages and records for this station are not official NWS values.
T = Trace of Precipitation, MM = Missing Value Source: NWS Daily Summary

Daily Weather History Graph

Daily Weather History Graph

Search for Another Location

Airport or City:

Trip Planner

Search our weather history database for the weather conditions in past years. The results will help you decide how hot, cold, wet, or windy it might be!

Date:

Astronomy

May. 04, 2013 Rise Set
Actual Time 5:48 AM PDT 8:25 PM PDT
Civil Twilight 5:14 AM PDT 9:00 PM PDT
Nautical Twilight 4:30 AM PDT 9:43 PM PDT
Astronomical Twilight 3:40 AM PDT 10:34 PM PDT
Moon 3:10 AM PDT (5/4) 3:10 PM PDT (5/4)
Length of Visible Light 15h 45m
Length of Day
14h 36m
Waning Crescent, 26% of the Moon is Illuminated
May 4
Waning Crescent
May 9
New
May 17
First Quarter
May 24
Full
May 31
Last Quarter

Hourly Weather History & Observations

Time (PDT) Temp. Dew Point Humidity Pressure Visibility Wind Dir Wind Speed Gust Speed Precip Events Conditions
12:58 AM 56.5 °F 43.0 °F 61% 30.23 in 10.0 mi NNE 5.8 mph - N/A   Clear
1:58 AM 58.3 °F 42.4 °F 56% 30.23 in 10.0 mi East 4.6 mph - N/A   Clear
2:58 AM 55.0 °F 43.0 °F 64% 30.22 in 10.0 mi Variable 2.3 mph - N/A   Clear
3:58 AM 50.7 °F 42.4 °F 73% 30.22 in 10.0 mi ESE 3.5 mph - N/A   Clear
4:58 AM 47.1 °F 42.3 °F 83% 30.22 in 10.0 mi SSE 3.5 mph - N/A   Clear
5:58 AM 44.6 °F 41.5 °F 89% 30.22 in 10.0 mi SE 1.2 mph - N/A   Clear
6:58 AM 45.9 °F 43.3 °F 91% 30.23 in 10.0 mi East 2.3 mph - N/A   Clear
7:58 AM 56.8 °F 46.2 °F 68% 30.23 in 10.0 mi NE 6.9 mph - N/A   Clear
8:58 AM 59.7 °F 46.9 °F 63% 30.22 in 10.0 mi North 15.0 mph - N/A   Clear
9:58 AM 61.5 °F 47.3 °F 60% 30.22 in 10.0 mi NNE 9.2 mph - N/A   Clear
10:58 AM 65.5 °F 46.9 °F 51% 30.20 in 10.0 mi North 11.5 mph - N/A   Clear
11:58 AM 68.0 °F 46.8 °F 47% 30.19 in 10.0 mi NNE 10.4 mph - N/A   Clear
12:58 PM 71.6 °F 44.8 °F 38% 30.15 in 10.0 mi NE 9.2 mph - N/A   Clear
1:58 PM 74.7 °F 43.3 °F 33% 30.12 in 10.0 mi NNE 17.3 mph 24.2 mph N/A   Clear
2:58 PM 77.0 °F 41.9 °F 28% 30.10 in 10.0 mi North 16.1 mph 26.5 mph N/A   Clear
3:58 PM 77.0 °F 41.4 °F 28% 30.07 in 10.0 mi NNE 18.4 mph 25.3 mph N/A   Clear
4:58 PM 77.0 °F 38.5 °F 25% 30.05 in 10.0 mi NNE 15.0 mph 24.2 mph N/A   Clear
5:58 PM 75.2 °F 36.9 °F 25% 30.04 in 10.0 mi NNE 19.6 mph 24.2 mph N/A   Clear
6:58 PM 72.5 °F 35.4 °F 26% 30.02 in 10.0 mi NNE 15.0 mph 23.0 mph N/A   Clear
7:58 PM 70.5 °F 35.4 °F 28% 30.02 in 10.0 mi NE 11.5 mph 24.2 mph N/A   Clear
8:58 PM 68.9 °F 35.1 °F 29% 30.02 in 10.0 mi NNE 10.4 mph 20.7 mph N/A   Clear
9:58 PM 67.3 °F 36.3 °F 32% 30.03 in 10.0 mi NNE 8.1 mph - N/A   Clear
10:58 PM 66.9 °F 39.2 °F 36% 30.01 in 10.0 mi NNE 8.1 mph - N/A   Clear
11:58 PM 65.5 °F 40.3 °F 40% 30.00 in 10.0 mi NE 5.8 mph - N/A   Clear